Year,Month,Day,Hour,Minute,Value (Times are PST for temperature in C)
2014,04,20,00,00,7.20
2014,04,20,00,01,7.30
2014,04,20,00,02,7.40
2014,04,20,00,03,7.40
2014,04,20,00,04,7.50
2014,04,20,00,05,7.50
2014,04,20,00,06,7.60
2014,04,20,00,07,7.60
2014,04,20,00,08,7.60
2014,04,20,00,09,7.60
2014,04,20,00,10,7.50
2014,04,20,00,11,7.50
2014,04,20,00,12,7.50
2014,04,20,00,13,7.50
2014,04,20,00,14,7.50
2014,04,20,00,15,7.50
2014,04,20,00,16,7.50
2014,04,20,00,17,7.30
2014,04,20,00,18,7.20
2014,04,20,00,19,7.10
2014,04,20,00,20,7.00
2014,04,20,00,21,7.00
2014,04,20,00,22,7.10
2014,04,20,00,23,7.10
2014,04,20,00,24,7.00
2014,04,20,00,25,7.00
2014,04,20,00,26,6.90
2014,04,20,00,27,6.90
2014,04,20,00,28,6.90
2014,04,20,00,29,6.80
2014,04,20,00,30,6.80
2014,04,20,00,31,6.80
2014,04,20,00,32,6.70
2014,04,20,00,33,6.70
2014,04,20,00,34,6.60
2014,04,20,00,35,6.50
2014,04,20,00,36,6.50
2014,04,20,00,37,6.50
2014,04,20,00,38,6.50
2014,04,20,00,39,6.50
2014,04,20,00,40,6.50
2014,04,20,00,41,6.70
2014,04,20,00,42,6.70
2014,04,20,00,43,6.80
2014,04,20,00,44,6.80
2014,04,20,00,45,6.80
2014,04,20,00,46,6.80
2014,04,20,00,47,7.00
2014,04,20,00,48,7.10
2014,04,20,00,49,7.00
2014,04,20,00,50,6.90
2014,04,20,00,51,6.90
2014,04,20,00,52,6.80
2014,04,20,00,53,6.80
2014,04,20,00,54,6.70
2014,04,20,00,55,6.70
2014,04,20,00,56,6.70
2014,04,20,00,57,6.70
2014,04,20,00,58,6.70
2014,04,20,00,59,6.70
2014,04,20,01,00,6.80
2014,04,20,01,01,6.80
2014,04,20,01,02,6.90
2014,04,20,01,03,7.20
2014,04,20,01,04,7.30
2014,04,20,01,05,7.50
2014,04,20,01,06,7.50
2014,04,20,01,07,7.60
2014,04,20,01,08,7.50
2014,04,20,01,09,7.50
2014,04,20,01,10,7.50
2014,04,20,01,11,7.40
2014,04,20,01,12,7.40
2014,04,20,01,13,7.50
2014,04,20,01,14,7.60
2014,04,20,01,15,7.70
2014,04,20,01,16,7.70
2014,04,20,01,17,7.80
2014,04,20,01,18,7.80
2014,04,20,01,19,7.90
2014,04,20,01,20,7.90
2014,04,20,01,21,7.90
2014,04,20,01,22,7.90
2014,04,20,01,23,7.90
2014,04,20,01,24,7.90
2014,04,20,01,25,7.90
2014,04,20,01,26,7.90
2014,04,20,01,27,7.80
2014,04,20,01,28,7.80
2014,04,20,01,29,7.80
2014,04,20,01,30,7.70
2014,04,20,01,31,7.70
2014,04,20,01,32,7.60
2014,04,20,01,33,7.60
2014,04,20,01,34,7.60
2014,04,20,01,35,7.50
2014,04,20,01,36,7.50
2014,04,20,01,37,7.40
2014,04,20,01,38,7.40
2014,04,20,01,39,7.40
2014,04,20,01,40,7.30
2014,04,20,01,41,7.20
2014,04,20,01,42,7.20
2014,04,20,01,43,7.20
2014,04,20,01,44,7.10
2014,04,20,01,45,7.10
2014,04,20,01,46,7.10
2014,04,20,01,47,7.00
2014,04,20,01,48,7.00
2014,04,20,01,49,6.90
2014,04,20,01,50,6.90
2014,04,20,01,51,6.80
2014,04,20,01,52,6.80
2014,04,20,01,53,6.80
2014,04,20,01,54,6.70
2014,04,20,01,55,6.70
2014,04,20,01,56,6.70
2014,04,20,01,57,6.70
2014,04,20,01,58,6.70
2014,04,20,01,59,6.60
2014,04,20,02,00,6.60
2014,04,20,02,01,6.60
2014,04,20,02,02,6.60
2014,04,20,02,03,6.70
2014,04,20,02,04,6.60
2014,04,20,02,05,6.50
2014,04,20,02,06,6.40
2014,04,20,02,07,6.40
2014,04,20,02,08,6.30
2014,04,20,02,09,6.30
2014,04,20,02,10,6.30
2014,04,20,02,11,6.20
2014,04,20,02,12,6.20
2014,04,20,02,13,6.30
2014,04,20,02,14,6.30
2014,04,20,02,15,6.40
2014,04,20,02,16,6.40
2014,04,20,02,17,6.40
2014,04,20,02,18,6.50
2014,04,20,02,19,6.50
2014,04,20,02,20,6.60
2014,04,20,02,21,6.50
2014,04,20,02,22,6.50
2014,04,20,02,23,6.40
2014,04,20,02,24,6.40
2014,04,20,02,25,6.40
2014,04,20,02,26,6.40
2014,04,20,02,27,6.40
2014,04,20,02,28,6.50
2014,04,20,02,29,6.50
2014,04,20,02,30,6.60
2014,04,20,02,31,6.60
2014,04,20,02,32,6.60
2014,04,20,02,33,6.50
2014,04,20,02,34,6.40
2014,04,20,02,35,6.50
2014,04,20,02,36,6.50
2014,04,20,02,37,6.40
2014,04,20,02,38,6.30
2014,04,20,02,39,6.10
2014,04,20,02,40,6.00
2014,04,20,02,41,6.00
2014,04,20,02,42,6.00
2014,04,20,02,43,6.10
2014,04,20,02,44,6.20
2014,04,20,02,45,6.30
2014,04,20,02,46,6.30
2014,04,20,02,47,6.30
2014,04,20,02,48,6.40
2014,04,20,02,49,6.60
2014,04,20,02,50,6.50
2014,04,20,02,51,6.30
2014,04,20,02,52,6.30
2014,04,20,02,53,6.20
2014,04,20,02,54,6.10
2014,04,20,02,55,6.10
2014,04,20,02,56,6.10
2014,04,20,02,57,6.20
2014,04,20,02,58,6.20
2014,04,20,02,59,6.20
2014,04,20,03,00,6.30
2014,04,20,03,01,6.30
2014,04,20,03,02,6.20
2014,04,20,03,03,6.20
2014,04,20,03,04,6.20
2014,04,20,03,05,6.20
2014,04,20,03,06,6.20
2014,04,20,03,07,6.20
2014,04,20,03,08,6.20
2014,04,20,03,09,6.20
2014,04,20,03,10,6.10
2014,04,20,03,11,6.10
2014,04,20,03,12,6.10
2014,04,20,03,13,6.00
2014,04,20,03,14,6.10
2014,04,20,03,15,6.00
2014,04,20,03,16,6.00
2014,04,20,03,17,6.00
2014,04,20,03,18,6.00
2014,04,20,03,19,5.90
2014,04,20,03,20,5.80
2014,04,20,03,21,5.70
2014,04,20,03,22,5.60
2014,04,20,03,23,5.50
2014,04,20,03,24,5.40
2014,04,20,03,25,5.50
2014,04,20,03,26,5.60
2014,04,20,03,27,5.70
2014,04,20,03,28,5.90
2014,04,20,03,29,6.00
2014,04,20,03,30,6.10
2014,04,20,03,31,6.20
2014,04,20,03,32,6.10
2014,04,20,03,33,6.10
2014,04,20,03,34,6.00
2014,04,20,03,35,6.10
2014,04,20,03,36,6.20
2014,04,20,03,37,6.30
2014,04,20,03,38,6.30
2014,04,20,03,39,6.40
2014,04,20,03,40,6.50
2014,04,20,03,41,6.60
2014,04,20,03,42,6.60
2014,04,20,03,43,6.60
2014,04,20,03,44,6.60
2014,04,20,03,45,6.60
2014,04,20,03,46,6.70
2014,04,20,03,47,6.80
2014,04,20,03,48,6.80
2014,04,20,03,49,6.80
2014,04,20,03,50,6.70
2014,04,20,03,51,6.60
2014,04,20,03,52,6.50
2014,04,20,03,53,6.30
2014,04,20,03,54,6.20
2014,04,20,03,55,6.10
2014,04,20,03,56,6.10
2014,04,20,03,57,6.20
2014,04,20,03,58,6.10
2014,04,20,03,59,6.00
2014,04,20,04,00,5.80
2014,04,20,04,01,5.70
2014,04,20,04,02,5.50
2014,04,20,04,03,5.40
2014,04,20,04,04,5.30
2014,04,20,04,05,5.30
2014,04,20,04,06,5.30
2014,04,20,04,07,5.30
2014,04,20,04,08,5.30
2014,04,20,04,09,5.30
2014,04,20,04,10,5.30
2014,04,20,04,11,5.20
2014,04,20,04,12,5.10
2014,04,20,04,13,5.00
2014,04,20,04,14,5.00
2014,04,20,04,15,4.90
2014,04,20,04,16,4.80
2014,04,20,04,17,4.80
2014,04,20,04,18,4.70
2014,04,20,04,19,4.70
2014,04,20,04,20,4.70
2014,04,20,04,21,4.70
2014,04,20,04,22,4.60
2014,04,20,04,23,4.60
2014,04,20,04,24,4.60
2014,04,20,04,25,4.60
2014,04,20,04,26,4.70
2014,04,20,04,27,4.80
2014,04,20,04,28,4.80
2014,04,20,04,29,4.80
2014,04,20,04,30,4.80
2014,04,20,04,31,4.80
2014,04,20,04,32,4.80
2014,04,20,04,33,4.70
2014,04,20,04,34,4.70
2014,04,20,04,35,4.70
2014,04,20,04,36,4.60
2014,04,20,04,37,4.60
2014,04,20,04,38,4.50
2014,04,20,04,39,4.60
2014,04,20,04,40,4.50
2014,04,20,04,41,4.40
2014,04,20,04,42,4.40
2014,04,20,04,43,4.40
2014,04,20,04,44,4.40
2014,04,20,04,45,4.40
2014,04,20,04,46,4.40
2014,04,20,04,47,4.40
2014,04,20,04,48,4.40
2014,04,20,04,49,4.40
2014,04,20,04,50,4.40
2014,04,20,04,51,4.40
2014,04,20,04,52,4.50
2014,04,20,04,53,4.60
2014,04,20,04,54,4.70
2014,04,20,04,55,4.90
2014,04,20,04,56,4.90
2014,04,20,04,57,4.80
2014,04,20,04,58,4.70
2014,04,20,04,59,4.60
2014,04,20,05,00,4.50
2014,04,20,05,01,4.50
2014,04,20,05,02,4.40
2014,04,20,05,03,4.40
2014,04,20,05,04,4.50
2014,04,20,05,05,4.50
2014,04,20,05,06,4.50
2014,04,20,05,07,4.50
2014,04,20,05,08,4.50
2014,04,20,05,09,4.50
2014,04,20,05,10,4.50
2014,04,20,05,11,4.50
2014,04,20,05,12,4.40
2014,04,20,05,13,4.40
2014,04,20,05,14,4.30
2014,04,20,05,15,4.30
2014,04,20,05,16,4.30
2014,04,20,05,17,4.30
2014,04,20,05,18,4.30
2014,04,20,05,19,4.30
2014,04,20,05,20,4.40
2014,04,20,05,21,4.40
2014,04,20,05,22,4.40
2014,04,20,05,23,4.40
2014,04,20,05,24,4.40
2014,04,20,05,25,4.40
2014,04,20,05,26,4.40
2014,04,20,05,27,4.40
2014,04,20,05,28,4.40
2014,04,20,05,29,4.40
2014,04,20,05,30,4.40
2014,04,20,05,31,4.50
2014,04,20,05,32,4.60
2014,04,20,05,33,4.70
2014,04,20,05,34,4.80
2014,04,20,05,35,4.90
2014,04,20,05,36,4.90
2014,04,20,05,37,4.90
2014,04,20,05,38,4.80
2014,04,20,05,39,4.70
2014,04,20,05,40,4.60
2014,04,20,05,41,4.60
2014,04,20,05,42,4.50
2014,04,20,05,43,4.50
2014,04,20,05,44,4.40
2014,04,20,05,45,4.40
2014,04,20,05,46,4.30
2014,04,20,05,47,4.30
2014,04,20,05,48,4.30
2014,04,20,05,49,4.30
2014,04,20,05,50,4.20
2014,04,20,05,51,4.20
2014,04,20,05,52,4.20
2014,04,20,05,53,4.20
2014,04,20,05,54,4.20
2014,04,20,05,55,4.20
2014,04,20,05,56,4.20
2014,04,20,05,57,4.30
2014,04,20,05,58,4.30
2014,04,20,05,59,4.40
2014,04,20,06,00,4.40
2014,04,20,06,01,4.50
2014,04,20,06,02,4.50
2014,04,20,06,03,4.50
2014,04,20,06,04,4.50
2014,04,20,06,05,4.50
2014,04,20,06,06,4.50
2014,04,20,06,07,4.60
2014,04,20,06,08,4.60
2014,04,20,06,09,4.70
2014,04,20,06,10,4.70
2014,04,20,06,11,4.80
2014,04,20,06,12,5.00
2014,04,20,06,13,5.10
2014,04,20,06,14,5.20
2014,04,20,06,15,5.30
2014,04,20,06,16,5.40
2014,04,20,06,17,5.40
2014,04,20,06,18,5.30
2014,04,20,06,19,5.20
2014,04,20,06,20,5.20
2014,04,20,06,21,5.20
2014,04,20,06,22,5.20
2014,04,20,06,23,5.20
2014,04,20,06,24,5.20
2014,04,20,06,25,5.30
2014,04,20,06,26,5.40
2014,04,20,06,27,5.40
2014,04,20,06,28,5.40
2014,04,20,06,29,5.50
2014,04,20,06,30,5.50
2014,04,20,06,31,5.50
2014,04,20,06,32,5.60
2014,04,20,06,33,5.60
2014,04,20,06,34,5.60
2014,04,20,06,35,5.60
2014,04,20,06,36,5.60
2014,04,20,06,37,5.60
2014,04,20,06,38,5.60
2014,04,20,06,39,5.60
2014,04,20,06,40,5.70
2014,04,20,06,41,5.70
2014,04,20,06,42,5.70
2014,04,20,06,43,5.70
2014,04,20,06,44,5.70
2014,04,20,06,45,5.70
2014,04,20,06,46,5.70
2014,04,20,06,47,5.70
2014,04,20,06,48,5.70
2014,04,20,06,49,5.80
2014,04,20,06,50,5.80
2014,04,20,06,51,5.90
2014,04,20,06,52,5.90
2014,04,20,06,53,5.90
2014,04,20,06,54,6.00
2014,04,20,06,55,6.00
2014,04,20,06,56,6.10
2014,04,20,06,57,6.10
2014,04,20,06,58,6.10
2014,04,20,06,59,6.10
2014,04,20,07,00,6.10
2014,04,20,07,01,6.10
2014,04,20,07,02,6.10
2014,04,20,07,03,6.10
2014,04,20,07,04,6.00
2014,04,20,07,05,6.00
2014,04,20,07,06,6.00
2014,04,20,07,07,6.00
2014,04,20,07,08,6.00
2014,04,20,07,09,6.10
2014,04,20,07,10,6.20
2014,04,20,07,11,6.30
2014,04,20,07,12,6.30
2014,04,20,07,13,6.40
2014,04,20,07,14,6.50
2014,04,20,07,15,6.50
2014,04,20,07,16,6.60
2014,04,20,07,17,6.70
2014,04,20,07,18,6.80
2014,04,20,07,19,6.90
2014,04,20,07,20,7.00
2014,04,20,07,21,7.10
2014,04,20,07,22,7.20
2014,04,20,07,23,7.20
2014,04,20,07,24,7.40
2014,04,20,07,25,7.40
2014,04,20,07,26,7.50
2014,04,20,07,27,7.60
2014,04,20,07,28,7.70
2014,04,20,07,29,7.80
2014,04,20,07,30,7.80
2014,04,20,07,31,7.90
2014,04,20,07,32,7.90
2014,04,20,07,33,8.00
2014,04,20,07,34,8.10
2014,04,20,07,35,8.10
2014,04,20,07,36,8.10
2014,04,20,07,37,8.20
2014,04,20,07,38,8.20
2014,04,20,07,39,8.30
2014,04,20,07,40,8.40
2014,04,20,07,41,8.40
2014,04,20,07,42,8.50
2014,04,20,07,43,8.50
2014,04,20,07,44,8.60
2014,04,20,07,45,8.60
2014,04,20,07,46,8.60
2014,04,20,07,47,8.70
2014,04,20,07,48,8.70
2014,04,20,07,49,8.70
2014,04,20,07,50,8.70
2014,04,20,07,51,8.60
2014,04,20,07,52,8.60
2014,04,20,07,53,8.60
2014,04,20,07,54,8.50
2014,04,20,07,55,8.50
2014,04,20,07,56,8.40
2014,04,20,07,57,8.30
2014,04,20,07,58,8.30
2014,04,20,07,59,8.30
2014,04,20,08,00,8.30
2014,04,20,08,01,8.30
2014,04,20,08,02,8.30
2014,04,20,08,03,8.30
2014,04,20,08,04,8.30
2014,04,20,08,05,8.40
2014,04,20,08,06,8.40
2014,04,20,08,07,8.40
2014,04,20,08,08,8.40
2014,04,20,08,09,8.40
2014,04,20,08,10,8.40
2014,04,20,08,11,8.50
2014,04,20,08,12,8.50
2014,04,20,08,13,8.50
2014,04,20,08,14,8.50
2014,04,20,08,15,8.50
2014,04,20,08,16,8.60
2014,04,20,08,17,8.60
2014,04,20,08,18,8.60
2014,04,20,08,19,8.60
2014,04,20,08,20,8.60
2014,04,20,08,21,8.60
2014,04,20,08,22,8.60
2014,04,20,08,23,8.60
2014,04,20,08,24,8.60
2014,04,20,08,25,8.60
2014,04,20,08,26,8.60
2014,04,20,08,27,8.60
2014,04,20,08,28,8.70
2014,04,20,08,29,8.70
2014,04,20,08,30,8.70
2014,04,20,08,31,8.80
2014,04,20,08,32,8.80
2014,04,20,08,33,8.80
2014,04,20,08,34,8.80
2014,04,20,08,35,8.90
2014,04,20,08,36,8.90
2014,04,20,08,37,8.90
2014,04,20,08,38,8.90
2014,04,20,08,39,8.90
2014,04,20,08,40,8.90
2014,04,20,08,41,8.90
2014,04,20,08,42,8.80
2014,04,20,08,43,8.80
2014,04,20,08,44,8.80
2014,04,20,08,45,8.70
2014,04,20,08,46,8.70
2014,04,20,08,47,8.70
2014,04,20,08,48,8.60
2014,04,20,08,49,8.60
2014,04,20,08,50,8.60
2014,04,20,08,51,8.60
2014,04,20,08,52,8.60
2014,04,20,08,53,8.60
2014,04,20,08,54,8.60
2014,04,20,08,55,8.60
2014,04,20,08,56,8.60
2014,04,20,08,57,8.50
2014,04,20,08,58,8.50
2014,04,20,08,59,8.40
2014,04,20,09,00,8.40
2014,04,20,09,01,8.40
2014,04,20,09,02,8.40
2014,04,20,09,03,8.40
2014,04,20,09,04,8.40
2014,04,20,09,05,8.40
2014,04,20,09,06,8.30
2014,04,20,09,07,8.30
2014,04,20,09,08,8.30
2014,04,20,09,09,8.30
2014,04,20,09,10,8.30
2014,04,20,09,11,8.20
2014,04,20,09,12,8.20
2014,04,20,09,13,8.20
2014,04,20,09,14,8.20
2014,04,20,09,15,8.20
2014,04,20,09,16,8.20
2014,04,20,09,17,8.20
2014,04,20,09,18,8.20
2014,04,20,09,19,8.20
2014,04,20,09,20,8.20
2014,04,20,09,21,8.20
2014,04,20,09,22,8.30
2014,04,20,09,23,8.30
2014,04,20,09,24,8.30
2014,04,20,09,25,8.30
2014,04,20,09,26,8.40
2014,04,20,09,27,8.40
2014,04,20,09,28,8.40
2014,04,20,09,29,8.50
2014,04,20,09,30,8.50
2014,04,20,09,31,8.50
2014,04,20,09,32,8.60
2014,04,20,09,33,8.60
2014,04,20,09,34,8.60
2014,04,20,09,35,8.60
2014,04,20,09,36,8.60
2014,04,20,09,37,8.60
2014,04,20,09,38,8.50
2014,04,20,09,39,8.50
2014,04,20,09,40,8.50
2014,04,20,09,41,8.50
2014,04,20,09,42,8.60
2014,04,20,09,43,8.60
2014,04,20,09,44,8.60
2014,04,20,09,45,8.70
2014,04,20,09,46,8.70
2014,04,20,09,47,8.80
2014,04,20,09,48,8.80
2014,04,20,09,49,8.80
2014,04,20,09,50,8.80
2014,04,20,09,51,8.80
2014,04,20,09,52,8.90
2014,04,20,09,53,8.90
2014,04,20,09,54,8.90
2014,04,20,09,55,8.90
2014,04,20,09,56,8.80
2014,04,20,09,57,8.80
2014,04,20,09,58,8.80
2014,04,20,09,59,8.80
2014,04,20,10,00,8.80
2014,04,20,10,01,8.70
2014,04,20,10,02,8.70
2014,04,20,10,03,8.70
2014,04,20,10,04,8.70
2014,04,20,10,05,8.70
2014,04,20,10,06,8.70
2014,04,20,10,07,8.70
2014,04,20,10,08,8.70
2014,04,20,10,09,8.70
2014,04,20,10,10,8.70
2014,04,20,10,11,8.70
2014,04,20,10,12,8.70
2014,04,20,10,13,8.80
2014,04,20,10,14,8.70
2014,04,20,10,15,8.80
2014,04,20,10,16,8.70
2014,04,20,10,17,8.70
2014,04,20,10,18,8.70
2014,04,20,10,19,8.80
2014,04,20,10,20,8.80
2014,04,20,10,21,8.80
2014,04,20,10,22,8.80
2014,04,20,10,23,8.80
2014,04,20,10,24,8.80
2014,04,20,10,25,8.80
2014,04,20,10,26,8.80
2014,04,20,10,27,8.80
2014,04,20,10,28,8.80
2014,04,20,10,29,8.80
2014,04,20,10,30,8.80
2014,04,20,10,31,8.80
2014,04,20,10,32,8.90
2014,04,20,10,33,8.90
2014,04,20,10,34,8.80
2014,04,20,10,35,8.80
2014,04,20,10,36,8.80
2014,04,20,10,37,8.80
2014,04,20,10,38,8.80
2014,04,20,10,39,8.80
2014,04,20,10,40,8.90
2014,04,20,10,41,8.90
2014,04,20,10,42,8.90
2014,04,20,10,43,9.00
2014,04,20,10,44,9.00
2014,04,20,10,45,9.00
2014,04,20,10,46,9.00
2014,04,20,10,47,9.00
2014,04,20,10,48,9.00
2014,04,20,10,49,9.00
2014,04,20,10,50,9.10
2014,04,20,10,51,9.10
2014,04,20,10,52,9.10
2014,04,20,10,53,9.10
2014,04,20,10,54,9.10
2014,04,20,10,55,9.10
2014,04,20,10,56,9.10
2014,04,20,10,57,9.00
2014,04,20,10,58,9.00
2014,04,20,10,59,9.00
2014,04,20,11,00,9.00
2014,04,20,11,01,9.00
2014,04,20,11,02,9.00
2014,04,20,11,03,9.00
2014,04,20,11,04,8.90
2014,04,20,11,05,8.90
2014,04,20,11,06,8.90
2014,04,20,11,07,8.90
2014,04,20,11,08,8.90
2014,04,20,11,09,8.80
2014,04,20,11,10,8.80
2014,04,20,11,11,8.80
2014,04,20,11,12,8.80
2014,04,20,11,13,8.80
2014,04,20,11,14,8.70
2014,04,20,11,15,8.70
2014,04,20,11,16,8.70
2014,04,20,11,17,8.70
2014,04,20,11,18,8.80
2014,04,20,11,19,8.80
2014,04,20,11,20,8.80
2014,04,20,11,21,8.80
2014,04,20,11,22,8.90
2014,04,20,11,23,8.90
2014,04,20,11,24,8.90
2014,04,20,11,25,8.90
2014,04,20,11,26,8.90
2014,04,20,11,27,8.90
2014,04,20,11,28,8.90
2014,04,20,11,29,8.90
2014,04,20,11,30,8.90
2014,04,20,11,31,8.80
2014,04,20,11,32,8.80
2014,04,20,11,33,8.80
2014,04,20,11,34,8.80
2014,04,20,11,35,8.80
2014,04,20,11,36,8.80
2014,04,20,11,37,8.80
2014,04,20,11,38,8.80
2014,04,20,11,39,8.80
2014,04,20,11,40,8.70
2014,04,20,11,41,8.80
2014,04,20,11,42,8.80
2014,04,20,11,43,8.80
2014,04,20,11,44,8.80
2014,04,20,11,45,8.90
2014,04,20,11,46,8.90
2014,04,20,11,47,8.90
2014,04,20,11,48,9.00
2014,04,20,11,49,9.00
2014,04,20,11,50,9.10
2014,04,20,11,51,9.10
2014,04,20,11,52,9.10
2014,04,20,11,53,9.10
2014,04,20,11,54,9.10
2014,04,20,11,55,9.10
2014,04,20,11,56,9.10
2014,04,20,11,57,9.20
2014,04,20,11,58,9.20
2014,04,20,11,59,9.20
2014,04,20,12,00,9.30
2014,04,20,12,01,9.40
2014,04,20,12,02,9.40
2014,04,20,12,03,9.50
2014,04,20,12,04,9.60
2014,04,20,12,05,9.60
2014,04,20,12,06,9.60
2014,04,20,12,07,9.60
2014,04,20,12,08,9.70
2014,04,20,12,09,9.70
2014,04,20,12,10,9.70
2014,04,20,12,11,9.70
2014,04,20,12,12,9.70
2014,04,20,12,13,9.70
2014,04,20,12,14,9.60
2014,04,20,12,15,9.60
2014,04,20,12,16,9.70
2014,04,20,12,17,9.80
2014,04,20,12,18,9.80
2014,04,20,12,19,9.80
2014,04,20,12,20,9.80
2014,04,20,12,21,9.80
2014,04,20,12,22,9.80
2014,04,20,12,23,9.80
2014,04,20,12,24,9.90
2014,04,20,12,25,9.90
2014,04,20,12,26,9.90
2014,04,20,12,27,9.90
2014,04,20,12,28,9.90
2014,04,20,12,29,9.90
2014,04,20,12,30,9.90
2014,04,20,12,31,9.90
2014,04,20,12,32,9.90
2014,04,20,12,33,9.90
2014,04,20,12,34,10.00
2014,04,20,12,35,10.00
2014,04,20,12,36,10.00
2014,04,20,12,37,10.10
2014,04,20,12,38,10.10
2014,04,20,12,39,10.10
2014,04,20,12,40,10.10
2014,04,20,12,41,10.10
2014,04,20,12,42,10.20
2014,04,20,12,43,10.20
2014,04,20,12,44,10.10
2014,04,20,12,45,10.20
2014,04,20,12,46,10.20
2014,04,20,12,47,10.30
2014,04,20,12,48,10.30
2014,04,20,12,49,10.30
2014,04,20,12,50,10.20
2014,04,20,12,51,10.10
2014,04,20,12,52,10.00
2014,04,20,12,53,9.90
2014,04,20,12,54,9.90
2014,04,20,12,55,9.90
2014,04,20,12,56,10.00
2014,04,20,12,57,10.00
2014,04,20,12,58,10.00
2014,04,20,12,59,9.90
2014,04,20,13,00,9.90
2014,04,20,13,01,9.90
2014,04,20,13,02,9.80
2014,04,20,13,03,9.70
2014,04,20,13,04,9.70
2014,04,20,13,05,9.80
2014,04,20,13,06,9.90
2014,04,20,13,07,9.90
2014,04,20,13,08,10.00
2014,04,20,13,09,9.90
2014,04,20,13,10,9.90
2014,04,20,13,11,9.90
2014,04,20,13,12,10.00
2014,04,20,13,13,10.00
2014,04,20,13,14,10.10
2014,04,20,13,15,10.10
2014,04,20,13,16,10.10
2014,04,20,13,17,10.20
2014,04,20,13,18,10.20
2014,04,20,13,19,10.20
2014,04,20,13,20,10.30
2014,04,20,13,21,10.40
2014,04,20,13,22,10.60
2014,04,20,13,23,10.70
2014,04,20,13,24,10.70
2014,04,20,13,25,10.70
2014,04,20,13,26,10.80
2014,04,20,13,27,10.80
2014,04,20,13,28,10.80
2014,04,20,13,29,10.90
2014,04,20,13,30,11.00
2014,04,20,13,31,11.10
2014,04,20,13,32,11.20
2014,04,20,13,33,11.20
2014,04,20,13,34,11.20
2014,04,20,13,35,11.20
2014,04,20,13,36,11.20
2014,04,20,13,37,11.20
2014,04,20,13,38,11.20
2014,04,20,13,39,11.20
2014,04,20,13,40,11.10
2014,04,20,13,41,11.00
2014,04,20,13,42,11.00
2014,04,20,13,43,11.00
2014,04,20,13,44,11.00
2014,04,20,13,45,11.10
2014,04,20,13,46,11.10
2014,04,20,13,47,11.10
2014,04,20,13,48,11.10
2014,04,20,13,49,11.20
2014,04,20,13,50,11.10
2014,04,20,13,51,11.10
2014,04,20,13,52,11.10
2014,04,20,13,53,11.10
2014,04,20,13,54,11.20
2014,04,20,13,55,11.20
2014,04,20,13,56,11.20
2014,04,20,13,57,11.30
2014,04,20,13,58,11.30
2014,04,20,13,59,11.40
2014,04,20,14,00,11.50
2014,04,20,14,01,11.50
2014,04,20,14,02,11.40
2014,04,20,14,03,11.40
2014,04,20,14,04,11.30
2014,04,20,14,05,11.30
2014,04,20,14,06,11.30
2014,04,20,14,07,11.40
2014,04,20,14,08,11.40
2014,04,20,14,09,11.40
2014,04,20,14,10,11.30
2014,04,20,14,11,11.20
2014,04,20,14,12,11.10
2014,04,20,14,13,11.00
2014,04,20,14,14,10.90
2014,04,20,14,15,10.90
2014,04,20,14,16,10.80
2014,04,20,14,17,10.80
2014,04,20,14,18,10.90
2014,04,20,14,19,11.10
2014,04,20,14,20,11.10
2014,04,20,14,21,11.10
2014,04,20,14,22,11.20
2014,04,20,14,23,11.30
2014,04,20,14,24,11.20
2014,04,20,14,25,11.20
2014,04,20,14,26,11.20
2014,04,20,14,27,11.20
2014,04,20,14,28,11.30
2014,04,20,14,29,11.30
2014,04,20,14,30,11.30
2014,04,20,14,31,11.30
2014,04,20,14,32,11.30
2014,04,20,14,33,11.30
2014,04,20,14,34,11.20
2014,04,20,14,35,11.20
2014,04,20,14,36,11.20
2014,04,20,14,37,11.20
2014,04,20,14,38,11.20
2014,04,20,14,39,11.10
2014,04,20,14,40,11.10
2014,04,20,14,41,11.10
2014,04,20,14,42,10.90
2014,04,20,14,43,10.80
2014,04,20,14,44,10.80
2014,04,20,14,45,10.80
2014,04,20,14,46,10.80
2014,04,20,14,47,10.70
2014,04,20,14,48,10.70
2014,04,20,14,49,10.70
2014,04,20,14,50,10.70
2014,04,20,14,51,10.80
2014,04,20,14,52,10.80
2014,04,20,14,53,10.80
2014,04,20,14,54,10.80
2014,04,20,14,55,10.80
2014,04,20,14,56,10.80
2014,04,20,14,57,10.80
2014,04,20,14,58,10.90
2014,04,20,14,59,10.90
2014,04,20,15,00,10.80
2014,04,20,15,01,10.80
2014,04,20,15,02,10.80
2014,04,20,15,03,10.90
2014,04,20,15,04,10.80
2014,04,20,15,05,10.80
2014,04,20,15,06,10.80
2014,04,20,15,07,10.70
2014,04,20,15,08,10.70
2014,04,20,15,09,10.60
2014,04,20,15,10,10.70
2014,04,20,15,11,10.70
2014,04,20,15,12,10.60
2014,04,20,15,13,10.60
2014,04,20,15,14,10.60
2014,04,20,15,15,10.60
2014,04,20,15,16,10.60
2014,04,20,15,17,10.50
2014,04,20,15,18,10.50
2014,04,20,15,19,10.50
2014,04,20,15,20,10.50
2014,04,20,15,21,10.60
2014,04,20,15,22,10.60
2014,04,20,15,23,10.60
2014,04,20,15,24,10.60
2014,04,20,15,25,10.60
2014,04,20,15,26,10.50
2014,04,20,15,27,10.50
2014,04,20,15,28,10.60
2014,04,20,15,29,10.60
2014,04,20,15,30,10.60
2014,04,20,15,31,10.60
2014,04,20,15,32,10.60
2014,04,20,15,33,10.60
2014,04,20,15,34,10.70
2014,04,20,15,35,10.70
2014,04,20,15,36,10.70
2014,04,20,15,37,10.70
2014,04,20,15,38,10.70
2014,04,20,15,39,10.70
2014,04,20,15,40,10.70
2014,04,20,15,41,10.70
2014,04,20,15,42,10.60
2014,04,20,15,43,10.50
2014,04,20,15,44,10.50
2014,04,20,15,45,10.50
2014,04,20,15,46,10.50
2014,04,20,15,47,10.50
2014,04,20,15,48,10.50
2014,04,20,15,49,10.50
2014,04,20,15,50,10.50
2014,04,20,15,51,10.50
2014,04,20,15,52,10.40
2014,04,20,15,53,10.50
2014,04,20,15,54,10.50
2014,04,20,15,55,10.50
2014,04,20,15,56,10.60
2014,04,20,15,57,10.60
2014,04,20,15,58,10.60
2014,04,20,15,59,10.60
2014,04,20,16,00,10.60
2014,04,20,16,01,10.60
2014,04,20,16,02,10.60
2014,04,20,16,03,10.70
2014,04,20,16,04,10.70
2014,04,20,16,05,10.70
2014,04,20,16,06,10.60
2014,04,20,16,07,10.70
2014,04,20,16,08,10.70
2014,04,20,16,09,10.70
2014,04,20,16,10,10.70
2014,04,20,16,11,10.80
2014,04,20,16,12,10.80
2014,04,20,16,13,10.80
2014,04,20,16,14,10.80
2014,04,20,16,15,10.80
2014,04,20,16,16,10.80
2014,04,20,16,17,10.80
2014,04,20,16,18,10.80
2014,04,20,16,19,10.80
2014,04,20,16,20,10.70
2014,04,20,16,21,10.70
2014,04,20,16,22,10.70
2014,04,20,16,23,10.70
2014,04,20,16,24,10.70
2014,04,20,16,25,10.70
2014,04,20,16,26,10.80
2014,04,20,16,27,10.80
2014,04,20,16,28,10.80
2014,04,20,16,29,10.80
2014,04,20,16,30,10.80
2014,04,20,16,31,10.80
2014,04,20,16,32,10.80
2014,04,20,16,33,10.80
2014,04,20,16,34,10.80
2014,04,20,16,35,10.80
2014,04,20,16,36,10.80
2014,04,20,16,37,10.80
2014,04,20,16,38,10.80
2014,04,20,16,39,10.80
2014,04,20,16,40,10.80
2014,04,20,16,41,10.80
2014,04,20,16,42,10.80
2014,04,20,16,43,10.80
2014,04,20,16,44,10.70
2014,04,20,16,45,10.60
2014,04,20,16,46,10.60
2014,04,20,16,47,10.50
2014,04,20,16,48,10.50
2014,04,20,16,49,10.60
2014,04,20,16,50,10.60
2014,04,20,16,51,10.60
2014,04,20,16,52,10.60
2014,04,20,16,53,10.60
2014,04,20,16,54,10.60
2014,04,20,16,55,10.60
2014,04,20,16,56,10.60
2014,04,20,16,57,10.70
2014,04,20,16,58,10.70
2014,04,20,16,59,10.60
2014,04,20,17,00,10.60
2014,04,20,17,01,10.60
2014,04,20,17,02,10.60
2014,04,20,17,03,10.60
2014,04,20,17,04,10.60
2014,04,20,17,05,10.60
2014,04,20,17,06,10.50
2014,04,20,17,07,10.50
2014,04,20,17,08,10.50
2014,04,20,17,09,10.40
2014,04,20,17,10,10.50
2014,04,20,17,11,10.50
2014,04,20,17,12,10.50
2014,04,20,17,13,10.60
2014,04,20,17,14,10.50
2014,04,20,17,15,10.50
2014,04,20,17,16,10.50
2014,04,20,17,17,10.50
2014,04,20,17,18,10.50
2014,04,20,17,19,10.50
2014,04,20,17,20,10.50
2014,04,20,17,21,10.50
2014,04,20,17,22,10.50
2014,04,20,17,23,10.40
2014,04,20,17,24,10.40
2014,04,20,17,25,10.40
2014,04,20,17,26,10.40
2014,04,20,17,27,10.40
2014,04,20,17,28,10.40
2014,04,20,17,29,10.40
2014,04,20,17,30,10.40
2014,04,20,17,31,10.40
2014,04,20,17,32,10.40
2014,04,20,17,33,10.50
2014,04,20,17,34,10.50
2014,04,20,17,35,10.50
2014,04,20,17,36,10.50
2014,04,20,17,37,10.60
2014,04,20,17,38,10.60
2014,04,20,17,39,10.60
2014,04,20,17,40,10.60
2014,04,20,17,41,10.60
2014,04,20,17,42,10.60
2014,04,20,17,43,10.70
2014,04,20,17,44,10.70
2014,04,20,17,45,10.70
2014,04,20,17,46,10.70
2014,04,20,17,47,10.70
2014,04,20,17,48,10.70
2014,04,20,17,49,10.70
2014,04,20,17,50,10.70
2014,04,20,17,51,10.60
2014,04,20,17,52,10.60